Temperature
20 20 19 19 19 18 18 18 18 18 18 18 18 18 17 17 17 17 17 17 16 17 16 16 16 16 16 16 16 16 16 16 16 16 17 17 17 17 17 17 16 16 16
20 20 19 19 18 18 18 18 18 18 18 18 18 18 17 18 17 17 17 17 16 16 16 16 16 16 16 15 15 16 16 16 16 16 17 17 17 17 17 17 16 16 16
21 20 19 19 18 18 18 18 18 18 18 18 18 17 18 17 17 17 17 16 16 16 16 16 16 15 15 15 15 15 15 16 16 16 16 16 17 17 17 17 16 16 16
21 20 19 19 18 18 18 18 18 18 18 18 18 18 18 17 17 17 17 16 16 16 16 16 15 15 15 15 15 15 15 15 16 16 16 16 16 16 16 16 16 16 16
21 20 20 19 19 18 18 18 18 18 18 18 18 18 18 18 17 17 17 16 16 16 16 15 15 15 15 15 15 15 15 15 15 16 16 16 16 16 16 16 16 16 16
22 21 20 19 19 19 18 18 18 18 18 18 18 18 18 17 17 17 17 16 16 16 16 15 15 15 15 15 15 15 15 15 15 15 15 15 16 16 16 16 16 16 16
22 21 21 20 19 19 18 18 18 18 18 18 18 18 17 17 17 17 17 17 16 16 16 15 15 15 15 15 15 15 14 14 15 15 15 15 15 15 15 15 16 16 16
23 22 21 20 20 19 19 19 18 18 18 18 18 18 17 17 17 17 17 17 17 16 16 16 16 15 15 15 15 14 14 14 14 14 14 14 15 15 15 15 15 15 16
24 23 22 21 20 20 19 19 18 18 18 18 18 18 18 17 17 17 17 17 17 17 16 16 16 15 15 15 15 14 14 14 14 14 14 14 14 14 14 14 14 14 14
24 23 23 22 21 20 20 19 19 18 18 18 18 18 18 18 17 17 17 17 17 17 16 16 16 15 15 15 15 14 14 14 14 14 14 14 14 14 14 14 14 14 14
25 24 23 22 22 21 20 19 19 19 18 18 18 18 18 18 18 17 17 17 17 17 16 16 16 15 15 15 15 15 14 14 14 14 14 14 14 14 14 14 14 14 14
25 25 24 23 22 21 20 20 19 19 18 18 18 18 18 18 17 17 17 17 17 16 16 16 16 15 15 15 15 15 15 14 14 14 14 14 14 14 14 14 14 14 14
25 25 24 23 22 22 21 20 20 19 19 18 18 18 18 18 18 17 17 17 17 16 16 16 16 16 15 15 15 15 15 15 14 14 14 14 14 14 14 14 14 14 13
25 24 23 23 22 22 22 21 20 20 19 19 18 18 18 18 18 18 17 17 17 17 16 16 16 16 15 15 15 15 15 15 14 14 14 14 14 14 14 14 14 14 13
25 24 23 23 22 22 22 21 21 20 20 19 19 19 19 18 18 18 17 17 17 17 16 16 16 16 15 15 15 15 15 15 15 15 14 14 14 14 14 14 14 13 13
24 24 23 23 22 22 22 21 21 21 21 20 20 19 19 18 18 18 17 17 17 17 16 16 16 16 16 16 15 15 15 15 15 15 15 14 14 14 14 14 14 14 13
23 23 23 22 22 22 21 21 21 21 20 20 20 19 19 18 18 18 17 17 17 17 16 16 16 16 16 15 15 15 15 15 15 15 15 14 14 14 14 14 14 14 14
22 22 22 22 21 21 21 21 21 20 20 20 19 19 19 18 18 18 17 17 17 17 17 16 16 16 16 16 16 15 15 15 15 15 15 15 15 15 14 14 13 13 14
20 20 20 21 20 20 20 20 20 20 19 19 19 19 18 18 18 17 17 17 16 16 16 16 16 15 16 15 15 15 15 15 15 15 15 15 15 15 14 13 13 13 13
18 19 19 19 19 19 19 19 19 19 19 18 18 18 18 17 17 17 17 16 16 16 16 15 15 15 15 15 15 15 14 14 14 14 14 14 14 14 14 13 13 13 14
17 17 17 18 18 18 18 18 18 17 17 17 17 17 17 17 16 16 16 16 15 15 15 15 15 15 15 15 15 14 14 14 14 14 14 14 14 14 13 13 13 13 13
16 16 16 16 17 17 17 17 16 16 16 16 16 16 16 16 16 15 15 15 15 15 15 14 14 14 14 14 14 14 14 14 13 13 13 13 13 13 13 13 13 13 13
15 15 15 15 15 15 16 15 15 15 15 16 16 15 15 15 15 14 14 14 14 14 14 14 14 14 14 14 13 13 13 13 12 12 12 12 12 12 12 13 12 12 12
14 14 14 14 14 14 14 14 14 14 14 14 14 14 14 14 14 14 14 13 13 13 13 13 13 13 13 13 13 13 12 12 12 11 11 11 12 12 12 12 12 12 12
14 13 13 13 13 13 13 13 13 13 13 13 13 13 13 13 13 13 13 13 13 13 13 13 13 12 12 12 12 12 12 11 11 11 11 11 11 11 11 11 11 11 11
13 13 13 12 12 12 12 12 12 12 12 12 12 12 13 13 13 13 13 13 12 12 12 12 12 12 12 12 11 11 11 11 11 10 10 10 10 10 10 11 11 11 11
Wind_Speed
12 12 13 14 13 12 11 10 11 10 8 6 6 5 5 5 4 5 8 7 6 5 1 3 3 2 4 3 3 2 1 0 1 2 2 3 3 3 2 0 0 0 1
13 13 13 12 13 13 11 11 11 11 9 7 5 5 6 5 5 4 7 7 6 6 5 2 3 3 3 3 2 1 2 1 2 2 2 1 2 0 3 2 2 1 0
14 15 14 13 13 14 13 12 11 11 10 9 6 5 5 3 5 6 5 5 6 5 3 3 2 2 3 3 1 1 2 2 1 2 2 2 2 0 2 2 2 1 0
15 15 15 14 14 14 13 11 11 11 10 10 8 9 7 6 7 6 6 6 6 6 5 4 2 1 2 3 2 2 1 1 1 1 1 2 2 1 1 1 2 3 2
16 17 16 15 15 15 13 12 12 11 10 9 9 9 7 6 6 6 8 7 5 5 6 5 4 2 2 3 3 2 2 2 3 2 1 1 1 2 1 0 1 2 2
16 16 15 15 14 14 14 14 12 11 11 10 9 8 8 7 7 8 8 6 5 5 6 6 4 3 2 3 3 2 2 1 3 4 3 2 1 2 1 2 2 1 1
15 16 16 16 15 15 15 14 14 12 11 10 9 8 7 7 7 7 8 7 6 6 7 7 6 4 3 4 3 2 1 1 0 2 3 3 3 3 3 3 3 3 2
15 16 16 16 15 15 15 15 15 13 12 11 9 8 8 6 6 7 6 7 5 7 9 7 6 5 5 5 4 3 4 3 2 2 1 3 3 2 2 2 3 4 4
16 16 17 17 16 16 15 15 15 13 13 12 10 9 9 8 7 8 6 5 4 6 9 8 7 6 5 4 5 3 3 4 3 3 4 3 2 2 1 2 2 2 4
15 16 16 17 16 16 15 15 15 14 12 12 11 11 9 8 6 7 8 5 5 5 9 8 8 7 6 6 5 4 4 4 3 3 2 2 3 2 1 2 2 2 3
15 15 15 15 15 16 16 14 15 13 13 12 11 10 10 9 8 7 7 6 5 6 7 7 7 7 7 7 6 6 5 6 5 5 5 4 4 2 3 2 2 3 3
13 15 15 14 14 15 16 16 15 15 14 12 11 10 10 10 10 9 8 8 7 7 7 8 8 8 8 8 8 8 7 6 6 6 5 5 5 5 4 3 4 3 3
11 11 11 12 12 13 14 15 15 16 15 13 12 11 11 10 10 10 9 9 9 8 8 8 8 8 8 8 8 8 7 6 6 6 6 6 6 5 5 4 5 4 5
9 10 10 10 10 10 11 13 14 14 14 13 13 12 12 11 10 9 9 9 9 9 9 9 9 8 8 8 8 8 8 7 6 6 6 6 7 7 6 6 6 6 5
8 9 9 9 9 9 9 11 12 12 12 12 13 12 12 10 10 10 9 9 10 11 9 9 9 9 9 10 10 8 9 8 8 8 7 8 9 9 7 7 5 5 5
5 5 6 8 9 8 8 8 9 10 10 12 12 12 12 12 12 11 10 10 10 9 9 9 9 10 11 12 13 10 7 6 8 8 8 9 9 12 14 14 12 9 8
3 4 4 4 6 7 7 7 6 7 8 8 8 9 10 11 11 12 11 11 10 9 9 9 9 9 9 9 11 12 7 7 7 7 7 10 11 10 10 13 16 16 17
7 5 3 4 3 3 5 5 5 5 6 7 7 7 8 9 8 8 9 9 8 8 8 8 8 8 9 11 12 12 9 8 8 8 9 9 10 11 9 9 10 12 13
10 9 7 5 5 4 3 4 3 3 3 3 3 4 5 6 7 7 7 7 7 7 7 7 8 8 9 12 13 12 7 8 10 10 11 11 11 14 15 11 11 11 11
11 11 11 11 10 9 7 6 6 5 3 2 2 2 1 2 4 5 5 4 5 6 6 7 8 9 9 11 13 13 8 8 9 9 10 14 15 16 15 12 11 13 12
12 12 12 12 11 10 9 9 8 6 4 4 5 4 3 1 1 1 2 2 4 5 6 6 6 7 9 11 15 16 9 9 8 8 7 7 9 12 13 12 11 14 12
12 12 12 12 11 11 10 10 9 7 7 6 5 5 4 2 1 0 1 2 4 4 5 6 6 6 6 8 11 16 15 11 8 7 7 7 8 8 11 11 14 17 13
12 12 12 12 12 12 11 10 8 8 7 7 7 6 5 4 3 2 1 1 2 3 4 4 5 4 3 4 7 11 13 14 10 9 12 13 15 13 11 15 17 14 11
11 11 11 11 11 11 10 9 8 7 7 7 6 4 3 2 2 2 2 2 2 2 3 3 3 3 2 2 1 1 4 8 9 9 11 13 16 15 15 15 13 11 12
10 10 10 10 10 9 9 8 8 7 7 6 5 4 3 2 2 1 1 1 1 0 1 2 3 4 3 1 2 2 3 3 4 5 6 9 9 10 10 10 10 11 11
9 9 9 9 9 9 9 8 8 7 7 5 5 4 3 2 2 1 1 1 2 3 5 5 4 3 4 4 5 6 7 8 6 4 8 10 10 11 11 11 10 10 10
Wind_Direction
165 162 163 166 162 157 163 161 148 147 146 149 154 159 162 158 143 139 145 156 149 132 87 104 123 90 86 74 62 21 259 212 14 304 273 209 185 152 142 209 49 177 194
167 167 168 170 165 159 162 163 155 158 157 155 165 167 160 161 146 136 145 159 156 158 157 129 147 113 115 97 86 41 338 324 94 326 309 230 134 189 146 155 173 120 8
173 169 167 171 167 165 169 171 163 162 163 160 171 161 144 156 144 145 159 167 162 146 108 126 119 146 155 130 109 24 28 359 359 48 1 359 42 111 135 146 111 114 191
170 170 171 173 172 170 170 166 164 165 166 169 174 167 171 176 166 164 158 165 168 156 156 152 140 109 107 133 180 108 322 293 306 139 109 75 68 348 24 227 143 188 185
170 172 175 173 171 169 169 167 165 168 170 179 178 180 177 175 163 155 150 164 165 172 172 165 162 162 130 117 95 97 3 342 350 351 68 113 193 238 249 251 246 240 185
169 170 171 167 168 166 166 166 166 171 174 182 177 187 181 176 162 159 156 173 168 180 177 171 168 181 163 145 140 146 153 43 15 350 347 348 344 328 336 322 290 272 212
168 168 169 168 169 168 168 168 168 171 177 181 178 186 185 176 167 171 171 187 181 181 178 178 169 183 164 165 163 166 169 158 105 322 323 347 356 1 357 343 334 339 297
170 172 172 172 173 172 171 168 171 176 180 182 180 182 182 184 181 194 190 193 203 179 163 165 169 186 183 184 173 191 186 178 206 252 324 324 322 337 344 341 340 323 312
172 174 174 176 178 176 175 172 173 178 182 183 178 183 188 202 192 178 205 199 186 155 156 167 174 182 187 188 175 212 206 169 197 220 213 236 271 267 303 322 327 321 323
173 175 175 178 180 179 174 170 174 179 182 181 182 188 192 198 192 187 196 203 179 159 156 170 176 181 181 188 198 218 201 197 212 228 240 247 286 301 271 267 274 277 283
171 173 176 177 177 177 174 173 175 179 183 186 189 189 187 190 192 202 192 189 179 163 168 178 184 187 186 186 197 232 207 200 214 231 220 211 242 281 298 280 261 254 260
169 171 174 171 175 178 177 177 179 184 187 187 186 191 188 188 192 199 194 184 181 180 182 188 193 199 195 190 195 219 222 206 210 223 231 229 230 218 243 274 282 275 265
164 164 167 172 177 179 178 179 183 187 190 189 189 191 193 193 197 197 190 186 185 191 193 194 199 209 206 194 199 209 226 226 219 220 225 230 236 237 234 239 260 272 274
159 162 169 175 179 180 178 177 184 187 189 189 191 193 197 198 199 197 192 192 190 195 200 197 202 206 212 206 204 207 217 227 231 230 230 232 234 234 233 242 241 249 262
160 165 170 170 169 179 184 183 183 185 188 189 192 194 194 196 198 196 193 193 195 202 201 203 205 207 212 216 210 211 217 215 226 233 233 236 235 235 233 246 244 252 253
142 154 161 163 168 181 185 185 188 187 185 188 194 194 191 194 199 197 194 192 196 202 197 202 209 212 221 215 206 204 228 222 223 231 236 244 238 231 229 235 240 240 247
100 117 134 147 166 175 174 178 181 185 187 192 198 192 192 197 199 200 197 197 196 201 205 205 210 218 219 208 199 205 219 239 247 245 242 251 254 236 226 228 233 240 241
47 61 88 102 118 141 166 167 171 169 175 181 189 187 191 198 198 202 200 199 198 201 208 212 216 221 220 202 196 200 216 236 245 250 251 249 256 261 253 248 241 233 235
44 46 52 72 69 71 92 114 130 136 140 154 172 187 196 191 190 198 201 196 195 199 204 211 216 222 223 204 199 193 218 237 245 248 250 249 251 251 249 250 254 256 252
46 45 47 51 53 49 60 77 78 69 68 75 87 90 133 189 192 193 196 199 198 204 210 218 220 226 228 208 201 198 222 240 248 249 249 250 250 254 250 246 249 253 255
57 53 53 50 45 48 60 63 60 53 46 57 62 61 53 58 95 156 170 188 209 216 226 235 235 230 228 214 205 202 218 237 251 258 261 258 258 253 254 248 250 254 260
61 63 60 55 48 49 58 58 50 39 37 49 61 57 52 43 11 178 188 204 218 223 231 241 246 244 237 231 215 208 216 235 250 262 272 280 294 284 272 261 256 257 261
61 60 66 62 53 49 53 53 37 32 38 42 45 51 49 39 24 19 354 255 245 248 248 248 255 261 261 236 216 215 223 234 243 261 272 285 293 294 281 263 258 259 258
62 59 62 61 56 51 50 49 42 32 33 34 30 32 43 26 35 38 3 338 319 303 304 308 305 304 307 342 11 249 240 242 249 262 276 281 279 274 268 269 264 253 249
63 60 60 59 57 51 47 40 34 34 35 32 27 12 11 16 26 12 354 355 18 22 296 319 323 318 320 340 358 333 305 301 298 298 282 276 274 270 266 262 258 256 252
63 61 57 54 51 50 45 36 31 27 23 19 10 358 357 0 333 313 302 291 268 227 225 227 239 257 243 246 263 267 265 265 267 277 273 274 273 273 273 272 270 265 260
Height
1491 1494 1497 1501 1505 1510 1515 1519 1522 1526 1530 1533 1537 1540 1544 1546 1548 1550 1551 1553 1554 1555 1556 1557 1557 1558 1558 1559 1560 1560 1561 1562 1562 1563 1563 1564 1564 1565 1566 1566 1567 1567 1568
1489 1492 1496 1500 1503 1508 1512 1517 1521 1525 1529 1532 1536 1540 1543 1545 1548 1549 1550 1552 1553 1554 1556 1556 1557 1557 1558 1558 1559 1560 1560 1562 1562 1562 1562 1563 1565 1564 1565 1566 1566 1567 1567
1486 1490 1493 1498 1502 1506 1511 1515 1519 1523 1527 1531 1535 1539 1541 1544 1546 1548 1549 1551 1552 1553 1554 1555 1556 1557 1557 1558 1558 1559 1560 1561 1562 1562 1562 1563 1563 1564 1565 1565 1566 1566 1566
1483 1488 1492 1496 1501 1505 1510 1514 1518 1522 1526 1530 1533 1536 1539 1542 1545 1546 1547 1549 1551 1552 1553 1554 1555 1556 1557 1557 1558 1558 1559 1560 1561 1562 1562 1563 1563 1564 1565 1566 1565 1565 1565
1481 1486 1490 1495 1500 1504 1508 1512 1516 1520 1524 1528 1532 1535 1538 1541 1544 1545 1546 1548 1549 1550 1552 1553 1554 1555 1556 1556 1557 1557 1558 1559 1560 1561 1562 1562 1563 1563 1564 1565 1565 1565 1565
1480 1485 1490 1494 1499 1502 1507 1510 1514 1519 1522 1526 1530 1533 1537 1539 1541 1543 1544 1546 1548 1549 1550 1551 1552 1554 1554 1555 1556 1556 1557 1558 1558 1559 1560 1562 1562 1563 1563 1563 1564 1564 1564
1478 1483 1488 1493 1497 1501 1505 1509 1513 1516 1520 1524 1528 1531 1535 1537 1539 1541 1543 1545 1546 1547 1548 1550 1550 1552 1553 1554 1554 1555 1556 1556 1557 1558 1559 1560 1561 1561 1562 1562 1562 1562 1562
1476 1481 1486 1491 1495 1499 1503 1507 1511 1514 1518 1522 1526 1529 1532 1535 1537 1539 1541 1543 1545 1545 1546 1548 1549 1550 1551 1552 1553 1554 1555 1555 1556 1557 1558 1558 1559 1560 1561 1561 1561 1561 1561
1474 1479 1484 1489 1493 1497 1501 1505 1508 1512 1516 1520 1523 1527 1530 1533 1535 1537 1540 1541 1543 1544 1544 1546 1547 1548 1549 1550 1551 1552 1553 1554 1555 1555 1556 1557 1558 1558 1559 1559 1560 1561 1560
1471 1476 1481 1486 1490 1495 1499 1503 1507 1510 1514 1518 1521 1524 1527 1530 1533 1535 1537 1539 1541 1542 1542 1543 1544 1545 1546 1548 1549 1550 1551 1552 1553 1554 1554 1555 1556 1556 1557 1557 1558 1558 1558
1468 1473 1478 1483 1488 1492 1496 1500 1504 1508 1511 1515 1518 1522 1524 1527 1530 1532 1534 1536 1537 1539 1540 1541 1542 1543 1544 1545 1547 1548 1550 1550 1551 1552 1552 1553 1553 1554 1554 1555 1555 1555 1555
1466 1471 1476 1481 1485 1490 1494 1498 1501 1505 1508 1511 1515 1518 1521 1524 1526 1528 1530 1532 1534 1535 1536 1538 1539 1540 1542 1543 1544 1545 1547 1548 1548 1549 1550 1550 1551 1551 1552 1552 1552 1552 1552
1465 1470 1475 1479 1483 1487 1491 1495 1499 1502 1505 1508 1511 1515 1517 1520 1522 1524 1527 1528 1530 1531 1533 1534 1536 1537 1539 1540 1542 1543 1544 1545 1546 1547 1547 1548 1548 1548 1548 1548 1548 1549 1549
1464 1468 1473 1477 1480 1484 1488 1491 1495 1499 1502 1505 1508 1511 1513 1516 1518 1521 1523 1525 1526 1528 1529 1531 1532 1534 1536 1537 1538 1540 1541 1542 1543 1543 1544 1544 1544 1545 1545 1545 1545 1545 1544
1464 1467 1471 1475 1478 1482 1485 1489 1492 1496 1499 1502 1504 1507 1509 1513 1515 1517 1519 1520 1522 1524 1525 1527 1529 1530 1532 1533 1535 1536 1537 1538 1539 1539 1540 1540 1540 1540 1541 1541 1541 1540 1540
1464 1467 1470 1472 1475 1478 1481 1485 1488 1492 1495 1498 1500 1503 1505 1508 1510 1512 1514 1516 1517 1519 1521 1522 1524 1526 1528 1530 1531 1533 1534 1535 1535 1535 1536 1536 1536 1536 1536 1536 1536 1536 1535
1464 1466 1468 1471 1473 1476 1479 1482 1485 1488 1491 1494 1497 1500 1501 1503 1505 1507 1509 1511 1512 1515 1517 1518 1520 1521 1523 1525 1527 1528 1529 1530 1530 1530 1531 1531 1531 1532 1531 1530 1530 1529 1529
1465 1466 1468 1470 1473 1475 1477 1480 1482 1485 1487 1490 1493 1495 1497 1499 1501 1504 1505 1507 1508 1510 1512 1513 1515 1517 1518 1520 1521 1523 1524 1524 1525 1525 1525 1525 1525 1525 1526 1525 1524 1523 1522
1467 1468 1469 1470 1472 1474 1476 1478 1480 1483 1485 1486 1488 1491 1493 1496 1497 1499 1500 1502 1504 1504 1506 1508 1510 1512 1513 1515 1516 1518 1518 1518 1518 1519 1519 1519 1518 1519 1519 1518 1517 1516 1515
1469 1470 1470 1471 1472 1474 1476 1478 1480 1482 1483 1485 1486 1488 1490 1492 1494 1495 1497 1499 1500 1501 1502 1504 1506 1507 1509 1510 1511 1512 1512 1512 1512 1512 1512 1512 1512 1512 1512 1511 1510 1508 1507
1472 1472 1473 1473 1474 1475 1477 1478 1479 1481 1483 1484 1485 1486 1488 1489 1490 1491 1493 1495 1496 1497 1499 1500 1502 1503 1504 1504 1505 1506 1506 1506 1506 1506 1506 1506 1506 1505 1505 1504 1502 1500 1500
1476 1476 1475 1476 1477 1477 1478 1480 1481 1482 1483 1483 1484 1485 1486 1487 1488 1489 1490 1491 1493 1494 1495 1496 1498 1498 1499 1500 1500 1500 1500 1500 1499 1499 1499 1499 1499 1498 1497 1495 1494 1493 1492
1480 1480 1479 1479 1480 1480 1481 1482 1482 1483 1483 1483 1483 1483 1484 1485 1487 1487 1488 1489 1490 1491 1492 1493 1493 1494 1494 1494 1494 1494 1493 1493 1492 1492 1492 1491 1490 1489 1487 1486 1485 1484 1482
1483 1484 1483 1483 1484 1484 1484 1484 1484 1484 1484 1483 1483 1483 1484 1485 1486 1487 1487 1488 1488 1489 1489 1489 1490 1490 1490 1489 1488 1487 1487 1486 1485 1484 1484 1483 1481 1480 1478 1476 1475 1473 1472
1487 1487 1487 1487 1487 1487 1487 1487 1486 1486 1485 1485 1485 1485 1485 1485 1485 1485 1485 1486 1486 1486 1487 1486 1487 1487 1485 1484 1483 1483 1482 1481 1480 1478 1476 1474 1472 1470 1468 1467 1465 1464 1463
1490 1490 1490 1491 1491 1490 1489 1489 1488 1488 1487 1486 1486 1486 1486 1486 1486 1485 1484 1484 1484 1484 1484 1483 1483 1482 1481 1480 1479 1478 1477 1475 1473 1471 1469 1467 1465 1463 1461 1459 1458 1456 1454